Weather History for Ironwood, MI

Change the Weather History Date:

Wednesday, November 21, 2012

  Actual Average Record
Temperature  
Mean Temperature 40 °F -  
Max Temperature 51 °F 34 °F 53 °F (2001)
Min Temperature 30 °F 22 °F 1 °F (2008)
Degree Days  
Heating Degree Days 24    
Moisture  
Dew Point 34 °F    
Average Humidity 66    
Maximum Humidity 81    
Minimum Humidity 54    
Precipitation  
Precipitation 0.00 in - - ()
Sea Level Pressure  
Sea Level Pressure 29.89 in    
Wind  
Wind Speed 6 mph (SSW)    
Max Wind Speed 16 mph    
Max Gust Speed 24 mph    
Visibility 10 miles    
Events      
Averages and records for this station are not official NWS values.
T = Trace of Precipitation, MM = Missing Value Source: NWS Daily Summary

Daily Weather History Graph

Daily Weather History Graph

Search for Another Location

Airport:

Trip Planner

Search our weather history database for the weather conditions in past years. The results will help you decide how hot, cold, wet, or windy it might be!

Date:

Astronomy

Nov. 21, 2012 Rise Set
Actual Time 7:11 AM CST 4:21 PM CST
Civil Twilight 6:38 AM CST 4:54 PM CST
Nautical Twilight 6:01 AM CST 5:31 PM CST
Astronomical Twilight 5:25 AM CST 6:07 PM CST
Moon 12:57 PM CST (11/21) 12:08 AM CST (11/21)
Length of Visible Light 10h 16m
Length of Day
9h 09m
First Quarter, 62% of the Moon is Illuminated
Nov 21
First Quarter
Nov 28
Full
Dec 6
Last Quarter
Dec 13
New
Dec 19
First Quarter

Hourly Weather History & Observations

Time (CST) Temp. Windchill Dew Point Humidity Pressure Visibility Wind Dir Wind Speed Gust Speed Precip Events Conditions
12:15 AM 33.8 °F - 28.4 °F 81% 30.04 in 10.0 mi Calm Calm - N/A   Clear
12:35 AM 35.6 °F 31.7 °F 30.2 °F 81% 30.03 in 10.0 mi SSE 4.6 mph - N/A   Clear
12:55 AM 30.2 °F - 24.8 °F 80% 30.03 in 10.0 mi Calm Calm - N/A   Clear
1:15 AM 33.8 °F 28.6 °F 28.4 °F 81% 30.02 in 10.0 mi SSW 5.8 mph - N/A   Clear
1:35 AM 37.4 °F 32.8 °F 30.2 °F 75% 30.01 in 10.0 mi SW 5.8 mph - N/A   Clear
1:55 AM 39.2 °F 34.2 °F 33.8 °F 81% 30.00 in 8.0 mi South 6.9 mph - N/A   Clear
2:15 AM 39.2 °F 37.0 °F 33.8 °F 81% 30.01 in 8.0 mi South 3.5 mph - N/A   Clear
2:35 AM 39.2 °F 35.0 °F 33.8 °F 81% 30.01 in 7.0 mi SSW 5.8 mph - N/A   Clear
2:55 AM 39.2 °F 33.0 °F 33.8 °F 81% 30.01 in 7.0 mi SW 9.2 mph - N/A   Clear
3:15 AM 37.4 °F 33.8 °F 32.0 °F 81% 30.00 in 7.0 mi South 4.6 mph - N/A   Clear
3:35 AM 39.2 °F 35.9 °F 32.0 °F 75% 29.99 in 7.0 mi South 4.6 mph - N/A   Clear
3:55 AM 39.2 °F 34.2 °F 32.0 °F 75% 29.99 in 8.0 mi South 6.9 mph - N/A   Clear
4:15 AM 39.2 °F 35.0 °F 32.0 °F 75% 29.99 in 7.0 mi South 5.8 mph - N/A   Clear
4:35 AM 39.2 °F 33.6 °F 32.0 °F 75% 29.98 in 8.0 mi SSW 8.1 mph 17.3 mph N/A   Clear
4:55 AM 39.2 °F 33.0 °F 32.0 °F 75% 29.98 in 7.0 mi South 9.2 mph - N/A   Clear
5:15 AM 39.2 °F 33.0 °F 32.0 °F 75% 29.97 in 7.0 mi South 9.2 mph - N/A   Clear
5:35 AM 39.2 °F 33.6 °F 33.8 °F 81% 29.94 in 8.0 mi South 8.1 mph - N/A   Clear
5:55 AM 41.0 °F 35.2 °F 32.0 °F 70% 29.95 in 10.0 mi South 9.2 mph - N/A   Clear
6:15 AM 42.8 °F 38.6 °F 32.0 °F 66% 29.94 in 10.0 mi SSW 6.9 mph - N/A   Clear
6:35 AM 41.0 °F 36.4 °F 32.0 °F 70% 29.94 in 10.0 mi SSW 6.9 mph - N/A   Clear
6:55 AM 42.8 °F 38.0 °F 32.0 °F 66% 29.92 in 10.0 mi South 8.1 mph - N/A   Clear
7:15 AM 42.8 °F 36.6 °F 32.0 °F 66% 29.92 in 10.0 mi SSW 11.5 mph 19.6 mph N/A   Clear
7:35 AM 42.8 °F 37.5 °F 32.0 °F 66% 29.93 in 10.0 mi South 9.2 mph 18.4 mph N/A   Clear
7:55 AM 42.8 °F 37.0 °F 32.0 °F 66% 29.94 in 10.0 mi SW 10.4 mph - N/A   Clear
8:15 AM 42.8 °F 38.0 °F 32.0 °F 66% 29.94 in 10.0 mi SSW 8.1 mph - N/A   Clear
8:35 AM 42.8 °F 38.6 °F 32.0 °F 66% 29.94 in 10.0 mi SSW 6.9 mph - N/A   Clear
8:55 AM 42.8 °F 37.0 °F 32.0 °F 66% 29.94 in 10.0 mi SSW 10.4 mph - N/A   Clear
9:15 AM 42.8 °F 37.5 °F 32.0 °F 66% 29.93 in 10.0 mi SSW 9.2 mph - N/A   Clear
9:35 AM 44.6 °F 40.2 °F 33.8 °F 66% 29.93 in 10.0 mi SSW 8.1 mph - N/A   Clear
9:55 AM 44.6 °F 39.7 °F 33.8 °F 66% 29.92 in 10.0 mi SSW 9.2 mph - N/A   Clear
10:15 AM 44.6 °F 41.4 °F 33.8 °F 66% 29.92 in 10.0 mi SSW 5.8 mph - N/A   Clear
10:35 AM 46.4 °F 42.4 °F 33.8 °F 62% 29.92 in 10.0 mi SSW 8.1 mph - N/A   Clear
10:55 AM 46.4 °F 41.5 °F 33.8 °F 62% 29.91 in 10.0 mi SSW 10.4 mph - N/A   Clear
11:15 AM 48.2 °F - 35.6 °F 62% 29.91 in 10.0 mi SW 8.1 mph - N/A   Clear
11:35 AM 48.2 °F - 35.6 °F 62% 29.90 in 10.0 mi SSW 9.2 mph - N/A   Clear
11:55 AM 50.0 °F - 35.6 °F 58% 29.89 in 10.0 mi SSW 9.2 mph - N/A   Clear
12:15 PM 50.0 °F - 35.6 °F 58% 29.88 in 10.0 mi SSW 10.4 mph - N/A   Clear
12:35 PM 50.0 °F - 35.6 °F 58% 29.88 in 10.0 mi South 6.9 mph - N/A   Clear
12:55 PM 50.0 °F - 35.6 °F 58% 29.88 in 10.0 mi South 8.1 mph - N/A   Clear
1:15 PM 50.0 °F - 35.6 °F 58% 29.87 in 10.0 mi South 9.2 mph - N/A   Clear
1:35 PM 51.8 °F - 35.6 °F 54% 29.86 in 10.0 mi SSW 5.8 mph - N/A   Clear
1:55 PM 51.8 °F - 35.6 °F 54% 29.86 in 10.0 mi South 4.6 mph - N/A   Clear
2:15 PM 51.8 °F - 35.6 °F 54% 29.85 in 10.0 mi South 6.9 mph - N/A   Clear
2:35 PM 51.8 °F - 35.6 °F 54% 29.84 in 10.0 mi South 5.8 mph - N/A   Clear
2:55 PM 51.8 °F - 35.6 °F 54% 29.84 in 10.0 mi South 5.8 mph - N/A   Clear
3:15 PM 51.8 °F - 35.6 °F 54% 29.85 in 10.0 mi SSW 3.5 mph - N/A   Clear
3:35 PM 51.8 °F - 35.6 °F 54% 29.85 in 10.0 mi SW 8.1 mph - N/A   Clear
3:55 PM 51.8 °F - 35.6 °F 54% 29.85 in 10.0 mi SSW 5.8 mph - N/A   Clear
4:15 PM 51.8 °F - 35.6 °F 54% 29.85 in 10.0 mi South 4.6 mph - N/A   Clear
4:35 PM 50.0 °F - 35.6 °F 58% 29.86 in 10.0 mi SW 5.8 mph - N/A   Clear
4:55 PM 48.2 °F - 35.6 °F 62% 29.86 in 10.0 mi Calm Calm - N/A   Clear
5:15 PM 48.2 °F - 33.8 °F 58% 29.86 in 10.0 mi SW 4.6 mph - N/A   Clear
5:35 PM 48.2 °F - 35.6 °F 62% 29.85 in 10.0 mi SSW 3.5 mph - N/A   Clear
5:55 PM 46.4 °F - 33.8 °F 62% 29.85 in 10.0 mi Calm Calm - N/A   Clear
6:15 PM 46.4 °F 44.3 °F 33.8 °F 62% 29.84 in 10.0 mi South 4.6 mph - N/A   Clear
6:35 PM 46.4 °F 43.5 °F 35.6 °F 66% 29.83 in 10.0 mi South 5.8 mph - N/A   Clear
6:55 PM 46.4 °F 42.9 °F 35.6 °F 66% 29.83 in 10.0 mi South 6.9 mph - N/A   Clear
7:15 PM 46.4 °F 43.5 °F 35.6 °F 66% 29.82 in 10.0 mi South 5.8 mph - N/A   Clear
7:35 PM 48.2 °F - 35.6 °F 62% 29.81 in 10.0 mi South 6.9 mph - N/A   Clear
7:55 PM 48.2 °F - 35.6 °F 62% 29.80 in 10.0 mi South 8.1 mph - N/A   Clear
8:15 PM 48.2 °F - 35.6 °F 62% 29.79 in 10.0 mi South 10.4 mph 17.3 mph N/A   Clear
8:35 PM 48.2 °F - 35.6 °F 62% 29.79 in 10.0 mi South 9.2 mph - N/A   Clear
8:55 PM 48.2 °F - 37.4 °F 66% 29.78 in 10.0 mi South 9.2 mph 16.1 mph N/A   Clear
9:15 PM 48.2 °F - 37.4 °F 66% 29.77 in 10.0 mi South 9.2 mph - N/A   Clear
9:35 PM 50.0 °F - 37.4 °F 62% 29.76 in 10.0 mi South 13.8 mph 19.6 mph N/A   Clear
9:55 PM 51.8 °F - 39.2 °F 62% 29.76 in 10.0 mi SSW 12.7 mph 21.9 mph N/A   Clear
10:15 PM 50.0 °F - 39.2 °F 66% 29.76 in 10.0 mi South 9.2 mph 18.4 mph N/A   Clear
10:35 PM 50.0 °F - 39.2 °F 66% 29.75 in 10.0 mi South 12.7 mph 19.6 mph N/A   Clear
10:55 PM 50.0 °F - 39.2 °F 66% 29.74 in 10.0 mi South 16.1 mph 24.2 mph N/A   Clear
11:15 PM 48.2 °F - 39.2 °F 71% 29.73 in 10.0 mi South 12.7 mph 21.9 mph N/A   Clear
11:35 PM 48.2 °F - 37.4 °F 66% 29.73 in 10.0 mi South 12.7 mph 19.6 mph N/A   Clear
11:55 PM 48.2 °F - 39.2 °F 71% 29.72 in 10.0 mi South 11.5 mph 16.1 mph N/A   Clear